Newcastle, WY

9:15 AM MST on December 05, 2016 (GMT -0700)
Mondell

Weather History for KECS - March, 2014

Change the Weather History Date:

Sunday, March 2, 2014

  Actual Average (KCUT) Record (KCUT)
Temperature  
Mean Temperature 0 °F 28 °F  
Max Temperature 8 °F 39 °F 63 °F (1992)
Min Temperature -9 °F 18 °F -20 °F (1943)
Degree Days  
Heating Degree Days 66 37  
Month to date heating degree days 74  
Since 1 July heating degree days 5909  
Cooling Degree Days 0 0  
Month to date cooling degree days 0  
Year to date cooling degree days 0  
Moisture  
Dew Point -6 °F    
Average Humidity 72    
Maximum Humidity 85    
Minimum Humidity 61    
Precipitation  
Precipitation 0.00 in 0.02 in 0.89 in (1953)
Month to date precipitation 0.03  
Year to date precipitation 0.89  
Sea Level Pressure  
Sea Level Pressure 30.13 in    
Wind  
Wind Speed 7 mph (SSE)    
Max Wind Speed 14 mph    
Max Gust Speed -    
Visibility 10 miles    
Events      
T = Trace of Precipitation, MM = Missing Value Source: NWS Daily Summary

Daily Weather History Graph

Daily Weather History Graph

Search for Another Location

Airport or City:

Trip Planner

Search our weather history database for the weather conditions in past years. The results will help you decide how hot, cold, wet, or windy it might be!

Date:

Astronomy

Mar. 02, 2014 Rise Set
Actual Time 6:32 AM MST 5:47 PM MST
Civil Twilight 6:03 AM MST 6:16 PM MST
Nautical Twilight 5:30 AM MST 6:49 PM MST
Astronomical Twilight 4:56 AM MST 7:22 PM MST
Moon 7:00 AM MST (3/2) 7:51 PM MST (3/2)
Length of Visible Light 12h 12m
Length of Day
11h 14m
Waxing Crescent, 3% of the Moon is Illuminated
Mar 2
Waxing Crescent
Mar 8
First Quarter
Mar 16
Full
Mar 23
Last Quarter
Mar 30
New

Hourly Weather History & Observations

Time (MST) Temp. Windchill Dew Point Humidity Pressure Visibility Wind Dir Wind Speed Gust Speed Precip Events Conditions
12:15 AM -9.4 °F -18.6 °F -14.8 °F 77% 30.18 in 10.0 mi SSE 3.5 mph - N/A   Clear
12:35 AM -7.6 °F - -13.0 °F 77% 30.19 in 10.0 mi North - - N/A   Clear
12:55 AM -5.8 °F -18.4 °F -13.0 °F 71% 30.18 in 10.0 mi SE 5.8 mph - N/A   Scattered Clouds
1:15 AM -5.8 °F -18.4 °F -13.0 °F 71% 30.19 in 10.0 mi SSE 5.8 mph - N/A   Scattered Clouds
1:35 AM -5.8 °F - -11.2 °F 77% 30.19 in 10.0 mi North - - N/A   Overcast
1:55 AM -4.0 °F - -11.2 °F 71% 30.18 in 10.0 mi North - - N/A   Mostly Cloudy
2:15 AM -4.0 °F -17.8 °F -13.0 °F 65% 30.19 in 10.0 mi SSE 6.9 mph - N/A   Scattered Clouds
2:35 AM -7.6 °F -18.8 °F -13.0 °F 77% 30.19 in 10.0 mi South 4.6 mph - N/A   Clear
2:55 AM -7.6 °F -22.1 °F -14.8 °F 71% 30.20 in 10.0 mi SSE 6.9 mph - N/A   Scattered Clouds
3:15 AM -9.4 °F -20.9 °F -14.8 °F 77% 30.19 in 10.0 mi SE 4.6 mph - N/A   Clear
3:35 AM -9.4 °F -22.7 °F -14.8 °F 77% 30.17 in 10.0 mi SSE 5.8 mph - N/A   Clear
3:55 AM -7.6 °F -22.1 °F -14.8 °F 71% 30.17 in 10.0 mi SE 6.9 mph - N/A   Clear
4:15 AM -7.6 °F -20.6 °F -14.8 °F 71% 30.16 in 10.0 mi SE 5.8 mph - N/A   Clear
4:35 AM -7.6 °F - -14.8 °F 71% 30.16 in 10.0 mi Calm Calm - N/A   Scattered Clouds
4:55 AM -5.8 °F - -11.2 °F 77% 30.17 in 10.0 mi North - - N/A   Scattered Clouds
5:15 AM -4.0 °F - -11.2 °F 71% 30.17 in 10.0 mi North - - N/A   Clear
5:35 AM -4.0 °F - -9.4 °F 78% 30.17 in 10.0 mi North - - N/A   Clear
5:55 AM -4.0 °F - -9.4 °F 78% 30.17 in 10.0 mi North - - N/A   Scattered Clouds
6:15 AM -4.0 °F -17.8 °F -9.4 °F 78% 30.17 in 10.0 mi South 6.9 mph - N/A   Scattered Clouds
6:35 AM -5.8 °F -19.9 °F -13.0 °F 71% 30.17 in 10.0 mi SSE 6.9 mph - N/A   Clear
6:55 AM -7.6 °F -22.1 °F -13.0 °F 77% 30.19 in 10.0 mi SSE 6.9 mph - N/A   Clear
7:15 AM -7.6 °F -18.8 °F -14.8 °F 71% 30.19 in 10.0 mi East 4.6 mph - N/A   Clear
7:35 AM -5.8 °F - -11.2 °F 77% 30.19 in 10.0 mi North - - N/A   Clear
7:55 AM -4.0 °F -14.6 °F -9.4 °F 78% 30.19 in 10.0 mi SSE 4.6 mph - N/A   Clear
8:15 AM -4.0 °F -19.0 °F -9.4 °F 78% 30.19 in 10.0 mi SSE 8.1 mph - N/A   Clear
8:35 AM -4.0 °F -16.3 °F -9.4 °F 78% 30.19 in 10.0 mi SSE 5.8 mph - N/A   Clear
8:55 AM -0.4 °F -13.4 °F -9.4 °F 66% 30.17 in 10.0 mi SSE 6.9 mph - N/A   Clear
9:15 AM -0.4 °F -13.4 °F -7.6 °F 72% 30.17 in 10.0 mi SSE 6.9 mph - N/A   Clear
9:35 AM 1.4 °F -13.5 °F -7.6 °F 66% 30.17 in 10.0 mi SSE 9.2 mph - N/A   Clear
9:55 AM 1.4 °F -12.5 °F -7.6 °F 66% 30.17 in 10.0 mi SSE 8.1 mph - N/A   Clear
10:15 AM 3.2 °F -13.9 °F -7.6 °F 61% 30.17 in 10.0 mi SSE 12.7 mph - N/A   Clear
10:35 AM 3.2 °F -13.1 °F -7.6 °F 61% 30.17 in 10.0 mi SSE 11.5 mph - N/A   Clear
10:55 AM 3.2 °F -12.2 °F -5.8 °F 66% 30.19 in 10.0 mi South 10.4 mph - N/A   Clear
11:15 AM 5.0 °F -10.8 °F -5.8 °F 61% 30.19 in 10.0 mi South 11.5 mph - N/A   Clear
11:35 AM 5.0 °F -10.0 °F -5.8 °F 61% 30.18 in 10.0 mi SSE 10.4 mph - N/A   Clear
11:55 AM 5.0 °F -10.8 °F -5.8 °F 61% 30.17 in 10.0 mi SE 11.5 mph - N/A   Clear
12:15 PM 5.0 °F -10.8 °F -4.0 °F 66% 30.16 in 10.0 mi SSE 11.5 mph - N/A   Clear
12:35 PM 5.0 °F -10.8 °F -4.0 °F 66% 30.15 in 10.0 mi SSE 11.5 mph - N/A   Clear
12:55 PM 6.8 °F -10.0 °F -4.0 °F 61% 30.14 in 10.0 mi SSE 13.8 mph - N/A   Clear
1:15 PM 8.6 °F -6.3 °F -2.2 °F 62% 30.14 in 10.0 mi SSE 11.5 mph - N/A   Clear
1:35 PM 8.6 °F -6.3 °F -2.2 °F 62% 30.14 in 10.0 mi SSE 11.5 mph - N/A   Clear
1:55 PM 8.6 °F -7.0 °F -2.2 °F 62% 30.10 in 10.0 mi SE 12.7 mph - N/A   Clear
2:15 PM 8.6 °F -6.3 °F -2.2 °F 62% 30.13 in 10.0 mi South 11.5 mph - N/A   Clear
2:35 PM 8.6 °F -5.5 °F -0.4 °F 67% 30.12 in 10.0 mi SSE 10.4 mph - N/A   Clear
2:55 PM 8.6 °F -5.5 °F -2.2 °F 62% 30.12 in 10.0 mi SE 10.4 mph - N/A   Clear
3:15 PM 8.6 °F -7.0 °F -0.4 °F 67% 30.11 in 10.0 mi SE 12.7 mph - N/A   Clear
3:35 PM 8.6 °F -6.3 °F -0.4 °F 67% 30.10 in 10.0 mi SE 11.5 mph - N/A   Clear
3:55 PM 6.8 °F -10.0 °F -2.2 °F 67% 30.10 in 10.0 mi SSE 13.8 mph - N/A   Clear
4:15 PM 6.8 °F -10.0 °F -0.4 °F 72% 30.08 in 10.0 mi SSE 13.8 mph - N/A   Clear
4:35 PM 6.8 °F -8.6 °F -0.4 °F 72% 30.08 in 10.0 mi SSE 11.5 mph - N/A   Clear
4:55 PM 5.0 °F - -2.2 °F 72% 30.09 in 10.0 mi North - - N/A   Clear
5:15 PM 5.0 °F - -0.4 °F 78% 30.10 in 10.0 mi North - - N/A   Mostly Cloudy
5:35 PM 3.2 °F - -2.2 °F 78% 30.09 in 10.0 mi North - - N/A   Overcast
5:55 PM 3.2 °F - -2.2 °F 78% 30.09 in 10.0 mi North - - N/A   Overcast
6:15 PM 3.2 °F - -2.2 °F 78% 30.10 in 10.0 mi North - - N/A   Overcast
6:35 PM 3.2 °F - -2.2 °F 78% 30.10 in 10.0 mi North - - N/A   Overcast
6:55 PM 5.0 °F - -0.4 °F 78% 30.10 in 10.0 mi North - - N/A   Overcast
7:15 PM 3.2 °F -10.3 °F -2.2 °F 78% 30.09 in 10.0 mi SSE 8.1 mph - N/A   Overcast
7:35 PM 3.2 °F - -4.0 °F 72% 30.08 in 10.0 mi North - - N/A   Overcast
7:55 PM 1.4 °F -12.5 °F -4.0 °F 78% 30.08 in 10.0 mi SSE 8.1 mph - N/A   Scattered Clouds
8:15 PM 1.4 °F - -4.0 °F 78% 30.07 in 10.0 mi North - - N/A   Clear
8:35 PM 5.0 °F - -0.4 °F 78% 30.08 in 10.0 mi North - - N/A   Mostly Cloudy
8:55 PM 5.0 °F - -0.4 °F 78% 30.07 in 10.0 mi North - - N/A   Overcast
9:15 PM 5.0 °F - -0.4 °F 78% 30.07 in 10.0 mi North - - N/A   Mostly Cloudy
9:35 PM 3.2 °F - -2.2 °F 78% 30.06 in 10.0 mi North - - N/A   Clear
9:55 PM 5.0 °F - -0.4 °F 78% 30.06 in 10.0 mi North - - N/A   Clear
10:15 PM 5.0 °F - -0.4 °F 78% 30.04 in 10.0 mi North - - N/A   Clear
10:35 PM 3.2 °F - -2.2 °F 78% 30.04 in 10.0 mi North - - N/A   Clear
10:55 PM -0.4 °F - -4.0 °F 85% 30.03 in 10.0 mi North - - N/A   Clear
11:15 PM 5.0 °F - 1.4 °F 85% 30.01 in 10.0 mi North - - N/A   Clear
11:35 PM 5.0 °F - 1.4 °F 85% 29.99 in 10.0 mi North - - N/A   Clear
11:55 PM 3.2 °F - -2.2 °F 78% 29.99 in 10.0 mi North - - N/A   Clear